DW2227 Weather Reports


Display with metric or nautical units.
time (UTC)temp
F
wind
direction
speed
MPH
gust
MPH
rain 1hr
in
rain 24hr
in
rain mn
in
humidity
%
barometer
mb
20260502182337 59 321 1.0 3.0 0.00 0.00 0.00 35 1019.4
20260502181823 59 355 1.0 4.0 0.00 0.00 0.00 34 1019.5
20260502181325 58 73 0.0 3.0 0.00 0.00 0.00 32 1019.5
20260502180833 58 355 1.0 3.0 0.00 0.00 0.00 31 1019.7
20260502180314 58 240 1.0 5.0 0.00 0.00 0.00 31 1019.6
20260502170324 55 339 1.0 3.0 0.00 0.00 0.00 34 1020.2
20260502164320 55 232 2.0 4.0 0.00 0.00 0.00 35 1020.2
20260502163822 56 347 2.0 7.0 0.00 0.00 0.00 34 1020.3
20260502163330 56 360 1.0 7.0 0.00 0.00 0.00 35 1020.3
20260502162829 55 81 1.0 4.0 0.00 0.00 0.00 43 1020.3
20260502162328 55 177 2.0 4.0 0.00 0.00 0.00 36 1020.3
20260502161854 54 322 0.0 3.0 0.00 0.00 0.00 37 1020.4
20260502161321 54 346 0.0 2.0 0.00 0.00 0.00 39 1020.5
20260502160842 54 342 1.0 2.0 0.00 0.00 0.00 38 1020.5
20260502160326 54 147 0.0 2.0 0.00 0.00 0.00 35 1020.5
20260502152324 54 360 1.0 2.0 0.00 0.00 0.00 35 1020.5
20260502151824 54 360 0.0 3.0 0.00 0.00 0.00 43 1020.4
20260502151331 54 360 0.0 3.0 0.00 0.00 0.00 41 1020.4
20260502150830 54 223 0.0 3.0 0.00 0.00 0.00 43 1020.5
20260502150329 53 345 0.0 2.0 0.00 0.00 0.00 49 1020.4
20260502130317 44 360 0.0 2.0 0.00 0.00 0.00 78 1020.4
20260502123400 38 360 0.0 0.0 0.00 0.00 0.00 90 1020.3
20260502122821 38 360 0.0 0.0 0.00 0.00 0.00 91 1020.3
20260502122321 37 360 0.0 0.0 0.00 0.00 0.00 90 1020.3
20260502121829 36 360 0.0 0.0 0.00 0.00 0.00 90 1020.3
20260502121330 36 360 0.0 0.0 0.00 0.00 0.00 89 1020.2
20260502120839 36 360 0.0 0.0 0.00 0.00 0.00 89 1020.2
20260502120336 36 360 0.0 0.0 0.00 0.00 0.00 89 1020.1
20260502115821 36 360 0.0 0.0 0.00 0.00 0.00 89 1020.1
20260502115341 35 360 0.0 0.0 0.00 0.00 0.00 89 1020.0
20260502114828 35 360 0.0 0.0 0.00 0.00 0.00 89 1019.9
20260502114325 35 360 0.0 0.0 0.00 0.00 0.00 89 1019.9
20260502113828 35 360 0.0 0.0 0.00 0.00 0.00 89 1019.8
20260502113351 35 360 0.0 0.0 0.00 0.00 0.00 89 1019.7
20260502112838 35 360 0.0 0.0 0.00 0.00 0.00 89 1019.8
20260502112319 35 360 0.0 0.0 0.00 0.00 0.00 89 1019.8
20260502111821 35 360 0.0 0.0 0.00 0.00 0.00 88 1019.7
20260502111346 35 360 0.0 0.0 0.00 0.00 0.00 88 1019.7
20260502110851 35 360 0.0 0.0 0.00 0.00 0.00 88 1019.8
20260502110357 35 360 0.0 0.0 0.00 0.00 0.00 88 1019.7
20260502105816 35 360 0.0 0.0 0.00 0.00 0.00 88 1019.7
20260502105317 35 360 0.0 0.0 0.00 0.00 0.00 88 1019.6
20260502104819 35 360 0.0 0.0 0.00 0.00 0.00 88 1019.5
20260502104325 35 360 0.0 0.0 0.00 0.00 0.00 88 1019.5
20260502103825 36 360 0.0 0.0 0.00 0.00 0.00 88 1019.5
20260502103333 36 360 0.0 0.0 0.00 0.00 0.00 88 1019.5
20260502102816 36 360 0.0 0.0 0.00 0.00 0.00 87 1019.5
20260502102317 36 360 0.0 0.0 0.00 0.00 0.00 87 1019.5
20260502101819 36 360 0.0 0.0 0.00 0.00 0.00 87 1019.5
20260502101346 36 360 0.0 0.0 0.00 0.00 0.00 87 1019.4
20260502100825 36 360 0.0 0.0 0.00 0.00 0.00 87 1019.4
20260502100325 36 360 0.0 0.0 0.00 0.00 0.00 87 1019.5
20260502091330 38 360 0.0 0.0 0.00 0.00 0.00 85 1019.6
20260502090830 38 360 0.0 0.0 0.00 0.00 0.00 85 1019.6
20260502090336 39 360 0.0 0.0 0.00 0.00 0.00 84 1019.5
20260502071318 42 360 0.0 1.0 0.00 0.00 0.00 80 1019.0
20260502070816 42 360 0.0 1.0 0.00 0.00 0.00 80 1019.1
20260502070322 42 360 0.0 1.0 0.00 0.00 0.00 80 1019.1
20260502065824 42 360 0.0 1.0 0.00 0.00 0.00 81 1019.0
20260502065331 42 360 0.0 0.0 0.00 0.00 0.00 81 1019.1
20260502064833 42 360 0.0 1.0 0.00 0.00 0.00 81 1019.1
20260502064314 42 360 0.0 3.0 0.00 0.00 0.00 81 1019.1
20260502063841 42 360 0.0 3.0 0.00 0.00 0.00 81 1019.1
20260502063320 42 360 0.0 0.0 0.00 0.00 0.00 82 1019.0
20260502062828 42 360 0.0 1.0 0.00 0.00 0.00 82 1019.1
20260502062329 43 360 0.0 1.0 0.00 0.00 0.00 81 1019.0
20260502061857 43 360 0.0 0.0 0.00 0.00 0.00 81 1019.0
20260502061317 43 360 0.0 0.0 0.00 0.00 0.00 81 1019.1
20260502060817 43 360 0.0 0.0 0.00 0.00 0.00 81 1019.1
20260502060324 43 360 0.0 0.0 0.00 0.00 0.00 82 1019.1
20260502055843 43 360 0.0 0.0 0.00 0.00 0.00 82 1019.1
20260502055345 43 360 0.0 0.0 0.00 0.00 0.00 83 1019.0
20260502054830 42 360 0.0 0.0 0.00 0.00 0.00 83 1018.9
20260502054329 42 360 0.0 0.0 0.00 0.00 0.00 85 1018.8
20260502053831 42 360 0.0 0.0 0.00 0.00 0.00 85 1018.8
20260502053338 42 360 0.0 0.0 0.00 0.00 0.00 85 1018.8
20260502052818 42 360 0.0 0.0 0.00 0.00 0.00 86 1018.8
20260502052317 41 360 0.0 0.0 0.00 0.00 0.00 86 1018.8
20260502051826 41 360 0.0 1.0 0.00 0.00 0.00 85 1018.8
20260502051344 41 360 0.0 0.0 0.00 0.00 0.00 85 1018.8
20260502050828 41 360 0.0 0.0 0.00 0.00 0.00 85 1018.7
20260502050326 41 360 0.0 0.0 0.00 0.00 0.00 84 1018.6
20260502045827 41 360 0.0 0.0 0.00 0.00 0.00 84 1018.6
20260502045328 41 360 0.0 0.0 0.00 0.00 0.00 83 1018.6
20260502044829 41 360 0.0 0.0 0.00 0.00 0.00 83 1018.6
20260502044338 41 360 0.0 0.0 0.00 0.00 0.00 82 1018.5
20260502043820 42 360 0.0 0.0 0.00 0.00 0.00 82 1018.6
20260502043321 42 360 0.0 0.0 0.00 0.00 0.00 82 1018.6
20260502042830 42 360 0.0 0.0 0.00 0.00 0.00 82 1018.5
20260502042330 42 360 0.0 0.0 0.00 0.00 0.00 82 1018.4
20260502041828 42 360 0.0 0.0 0.00 0.00 0.00 81 1018.4
20260502041337 42 360 0.0 0.0 0.00 0.00 0.00 81 1018.3
20260502040837 43 360 0.0 0.0 0.00 0.00 0.00 81 1018.4
20260502040344 43 360 0.0 0.0 0.00 0.00 0.00 80 1018.4
20260502035846 43 360 0.0 0.0 0.00 0.00 0.00 80 1018.4
20260502035346 43 360 0.0 0.0 0.00 0.00 0.00 80 1018.4
20260502034831 43 360 0.0 0.0 0.00 0.00 0.00 80 1018.4
20260502034332 43 360 0.0 0.0 0.00 0.00 0.00 80 1018.1
20260502033814 43 360 0.0 0.0 0.00 0.00 0.00 80 1018.2
20260502033322 43 360 0.0 0.0 0.00 0.00 0.00 80 1018.2
20260502032820 43 360 0.0 0.0 0.00 0.00 0.00 79 1018.2
20260502032322 43 360 0.0 0.0 0.00 0.00 0.00 79 1018.2
20260502031829 43 360 0.0 0.0 0.00 0.00 0.00 78 1018.2
20260502031329 43 360 0.0 0.0 0.00 0.00 0.00 78 1018.2
20260502030817 43 360 0.0 0.0 0.00 0.00 0.00 77 1018.2
20260502030340 43 360 0.0 0.0 0.00 0.00 0.00 77 1018.2
20260502025820 43 360 0.0 0.0 0.00 0.00 0.00 76 1018.1
20260502025326 44 360 0.0 0.0 0.00 0.00 0.00 75 1018.1
20260502024853 44 360 0.0 0.0 0.00 0.00 0.00 76 1018.1
20260502024334 44 360 0.0 0.0 0.00 0.00 0.00 75 1018.0
20260502023814 44 360 0.0 0.0 0.00 0.00 0.00 75 1017.9
20260502023315 45 360 0.0 0.0 0.00 0.00 0.00 75 1017.9
20260502022823 45 360 0.0 0.0 0.00 0.00 0.00 75 1017.6
20260502022326 45 360 0.0 0.0 0.00 0.00 0.00 74 1017.7
20260502021834 45 360 0.0 0.0 0.00 0.00 0.00 72 1017.6
20260502021321 45 360 0.0 0.0 0.00 0.00 0.00 72 1017.6
20260502020822 46 360 0.0 0.0 0.00 0.00 0.00 70 1017.5
20260502020329 46 360 0.0 0.0 0.00 0.00 0.00 70 1017.4
20260502015830 46 360 0.0 0.0 0.00 0.00 0.00 68 1017.4
20260502015354 47 360 0.0 0.0 0.00 0.00 0.00 68 1017.3
20260502014818 47 360 0.0 0.0 0.00 0.00 0.00 66 1017.2
20260502014317 47 360 0.0 0.0 0.00 0.00 0.00 65 1017.2
20260502013824 48 360 0.0 0.0 0.00 0.00 0.00 65 1017.1
20260502013327 48 360 0.0 0.0 0.00 0.00 0.00 63 1017.0
20260502012826 49 360 0.0 0.0 0.00 0.00 0.00 61 1016.9
20260502012334 49 360 0.0 0.0 0.00 0.00 0.00 61 1016.9
20260502011817 50 360 0.0 0.0 0.00 0.00 0.00 60 1016.9
20260502011316 50 360 0.0 0.0 0.00 0.00 0.00 63 1016.9
20260502010826 50 360 0.0 0.0 0.00 0.00 0.00 63 1016.9
20260502010327 51 360 0.0 0.0 0.00 0.00 0.00 56 1016.8
20260502005826 51 360 0.0 0.0 0.00 0.00 0.00 54 1016.7
20260502005333 51 360 0.0 0.0 0.00 0.00 0.00 53 1016.7
20260502004832 52 360 0.0 0.0 0.00 0.00 0.00 52 1016.6
20260502004340 52 360 0.0 0.0 0.00 0.00 0.00 53 1016.6
20260502003840 52 360 0.0 0.0 0.00 0.00 0.00 52 1016.6
20260502003321 53 360 0.0 0.0 0.00 0.00 0.00 53 1016.5
20260502002847 53 360 0.0 0.0 0.00 0.00 0.00 55 1016.4
20260502002334 53 349 0.0 0.0 0.00 0.00 0.00 55 1016.4
20260502001815 53 349 0.0 0.0 0.00 0.00 0.00 54 1016.4
20260502001316 54 349 0.0 0.0 0.00 0.00 0.00 53 1016.3
20260502000818 54 355 0.0 0.0 0.00 0.00 0.00 51 1016.3
20260502000348 54 355 0.0 0.0 0.00 0.00 0.00 54 1016.3
20260501235835 54 355 0.0 1.0 0.00 0.00 0.00 54 1016.3
20260501235351 53 355 0.0 2.0 0.00 0.00 0.00 53 1016.3
20260501234814 54 327 0.0 2.0 0.00 0.00 0.00 55 1016.3
20260501234336 54 44 0.0 1.0 0.00 0.00 0.00 56 1016.3
20260501233815 54 44 0.0 0.0 0.00 0.00 0.00 55 1016.3
20260501233324 54 44 0.0 1.0 0.00 0.00 0.00 55 1016.3
20260501232827 54 44 0.0 1.0 0.00 0.00 0.00 54 1016.4
20260501232335 54 347 0.0 2.0 0.00 0.00 0.00 57 1016.4
20260501231818 54 347 0.0 2.0 0.00 0.00 0.00 53 1016.4
20260501231320 55 347 0.0 2.0 0.00 0.00 0.00 54 1016.4
20260501230827 55 331 1.0 2.0 0.00 0.00 0.00 50 1016.4
20260501230327 55 264 0.0 2.0 0.00 0.00 0.00 49 1016.3
20260501225828 56 360 0.0 1.0 0.00 0.00 0.00 49 1016.3
20260501225337 56 21 0.0 1.0 0.00 0.00 0.00 51 1016.3
20260501224819 56 311 0.0 1.0 0.00 0.00 0.00 49 1016.3
20260501224319 56 271 0.0 3.0 0.00 0.00 0.00 47 1016.3
20260501223828 56 324 0.0 4.0 0.00 0.00 0.00 45 1016.3
20260501223328 57 340 1.0 2.0 0.00 0.00 0.00 45 1016.3
20260501222828 57 360 0.0 3.0 0.00 0.00 0.00 48 1016.3
20260501222337 56 360 0.0 3.0 0.00 0.00 0.00 45 1016.2
20260501221819 56 360 0.0 2.0 0.00 0.00 0.00 47 1016.3
20260501221320 56 302 0.0 2.0 0.00 0.00 0.00 47 1016.3
20260501220827 56 240 1.0 2.0 0.00 0.00 0.00 47 1016.3
20260501220328 55 200 0.0 2.0 0.00 0.00 0.00 49 1016.3
20260501215336 55 242 0.0 2.0 0.00 0.00 0.00 47 1016.4
20260501214831 54 238 0.0 0.0 0.00 0.00 0.00 50 1016.4
20260501214337 54 238 0.0 0.0 0.00 0.00 0.00 50 1016.5
20260501213818 54 238 0.0 3.0 0.00 0.00 0.00 49 1016.5
20260501213320 54 238 1.0 3.0 0.00 0.00 0.00 49 1016.6
20260501212822 54 265 0.0 2.0 0.00 0.00 0.00 48 1016.6
20260501212331 54 325 1.0 2.0 0.00 0.00 0.00 48 1016.7
20260501211833 54 331 0.0 1.0 0.00 0.00 0.00 51 1016.7
20260501211340 55 331 0.0 1.0 0.00 0.00 0.00 50 1016.8
20260501210821 55 339 0.0 1.0 0.00 0.00 0.00 50 1016.8
20260501210314 55 335 0.0 2.0 0.00 0.00 0.00 50 1016.8
20260501205820 55 335 0.0 3.0 0.00 0.00 0.00 52 1016.9
20260501205323 55 229 0.0 3.0 0.00 0.00 0.00 48 1016.8
20260501204827 55 259 1.0 3.0 0.00 0.00 0.00 49 1016.9
20260501204328 55 300 1.0 5.0 0.00 0.00 0.00 49 1016.9
20260501203856 54 355 0.0 5.0 0.00 0.00 0.00 49 1017.0
20260501203332 54 281 0.0 2.0 0.00 0.00 0.00 50 1017.1
20260501202840 55 281 0.0 2.0 0.00 0.00 0.00 50 1017.1
20260501202321 55 336 1.0 3.0 0.00 0.00 0.00 45 1017.1
20260501201824 55 212 0.0 3.0 0.00 0.00 0.00 48 1017.1
20260501201352 55 286 1.0 3.0 0.00 0.00 0.00 49 1017.1
20260501200833 55 313 0.0 1.0 0.00 0.00 0.00 49 1017.2
20260501200315 56 313 0.0 3.0 0.00 0.00 0.00 48 1017.2
20260501195822 56 313 0.0 4.0 0.00 0.00 0.00 49 1017.1
20260501195322 56 254 1.0 3.0 0.00 0.00 0.00 44 1017.2
20260501194821 57 334 1.0 3.0 0.00 0.00 0.00 47 1017.2
20260501194327 56 360 1.0 2.0 0.00 0.00 0.00 47 1017.1
20260501193834 56 360 0.0 2.0 0.00 0.00 0.00 45 1017.1
20260501193315 56 305 1.0 4.0 0.00 0.00 0.00 49 1017.1
20260501192815 56 240 2.0 5.0 0.00 0.00 0.00 47 1017.0
20260501192316 56 306 2.0 5.0 0.00 0.00 0.00 46 1017.2
20260501191822 56 346 0.0 3.0 0.00 0.00 0.00 50 1017.2
20260501191324 55 242 0.0 3.0 0.00 0.00 0.00 49 1017.3
20260501190832 55 313 1.0 3.0 0.00 0.00 0.00 46 1017.3
20260501190333 55 34 0.0 2.0 0.00 0.00 0.00 45 1017.2
20260501185833 55 240 0.0 5.0 0.00 0.00 0.00 49 1017.3
20260501185323 55 240 1.0 5.0 0.00 0.00 0.00 47 1017.3
20260501184822 56 238 1.0 4.0 0.00 0.00 0.00 47 1017.4
20260501184322 56 360 1.0 3.0 0.00 0.00 0.00 49 1017.2
20260501183828 55 156 0.0 3.0 0.00 0.00 0.00 54 1017.2
20260501183356 55 131 1.0 3.0 0.00 0.00 0.00 46 1017.3
20260501182833 54 128 0.0 2.0 0.00 0.00 0.00 48 1017.2